Wind_Speed
16 17 18 17 16 16 16 16 15 15 14 14 14 14 14 13 14 14 14 15 16 17 17 19 19 19 18 18 18 18 18 19 19 18 19 20 21 22 22 23 23 24 24 24 24 23 23 23 23 22 21 22
17 17 17 16 16 16 15 14 13 13 12 12 11 11 11 11 11 12 12 13 14 16 17 19 19 19 19 19 18 19 19 19 19 19 19 20 21 22 23 23 24 24 23 23 23 22 22 21 21 23 23 23
16 15 15 15 15 14 14 13 12 11 11 11 11 11 11 11 11 11 12 13 14 16 16 18 19 19 19 19 19 19 19 19 20 20 20 19 20 20 21 23 23 24 23 23 22 22 21 20 20 22 25 23
15 14 14 15 15 14 13 12 12 11 11 11 11 11 11 11 11 11 13 14 15 16 16 17 18 19 19 19 19 20 20 20 20 20 19 19 19 19 19 20 21 22 22 22 21 20 20 20 21 20 23 24
16 16 16 15 15 14 13 12 11 11 11 11 11 11 11 11 11 12 14 16 16 17 17 17 17 18 18 19 19 20 19 19 19 19 18 18 19 20 19 19 19 19 19 20 20 20 20 20 21 19 19 23
17 17 16 15 14 13 12 11 10 11 11 11 11 11 11 12 13 13 15 17 17 17 18 18 17 17 18 18 18 19 18 18 18 19 19 19 20 19 18 18 19 18 18 19 19 19 21 22 21 21 20 21
18 17 16 15 13 12 11 11 10 11 11 11 12 12 12 13 12 13 15 16 16 15 16 17 17 17 18 18 18 19 19 19 18 19 20 19 19 19 18 18 17 18 19 20 20 20 22 23 22 22 22 21
17 16 15 14 13 13 12 11 11 11 12 13 13 13 13 13 12 13 14 15 15 15 16 16 17 17 17 18 18 19 20 20 19 19 20 18 18 19 18 18 18 18 20 21 22 23 22 22 22 22 22 21
16 15 15 14 13 12 12 11 11 11 12 13 14 14 14 13 13 14 15 16 16 17 16 16 17 17 17 17 18 19 19 19 17 17 19 19 19 18 18 19 20 20 21 22 23 23 22 22 22 22 21 20
16 15 15 14 13 13 12 11 12 12 12 13 15 14 13 12 13 14 16 17 17 17 17 17 17 16 17 17 17 18 17 16 15 16 17 18 18 17 18 19 20 21 21 21 22 22 22 22 21 21 20 19
17 17 16 15 14 13 12 12 12 12 12 13 14 15 13 12 14 15 16 17 17 17 17 16 16 15 16 16 16 16 15 14 14 14 15 16 15 15 17 19 20 20 20 20 21 21 21 21 20 20 19 18
17 16 16 15 14 13 13 13 13 13 12 12 13 15 14 13 14 15 16 16 17 16 17 16 15 15 15 15 15 15 15 14 13 13 14 14 14 14 16 18 19 20 20 21 21 20 19 18 18 18 18 18
17 16 15 15 14 14 14 14 14 13 13 13 13 15 15 15 15 16 16 16 16 16 16 16 15 14 14 14 15 15 15 14 12 13 13 13 13 14 15 16 17 18 19 20 20 19 18 16 16 16 17 19
17 17 16 15 14 14 14 14 14 13 14 14 14 15 15 16 16 16 16 16 15 15 15 15 14 14 14 14 14 15 15 14 13 13 13 13 13 13 14 16 15 15 17 18 18 18 17 16 15 16 17 18
18 17 16 15 15 14 14 14 14 14 14 14 15 16 16 16 16 16 16 16 15 15 14 14 14 14 14 14 14 15 15 14 13 13 13 13 13 13 14 15 14 14 16 16 16 15 15 17 17 17 17 18
19 18 17 16 15 15 15 15 15 15 14 15 16 17 17 16 16 16 16 16 15 15 15 15 15 15 15 14 14 15 15 12 12 12 12 12 12 12 13 13 13 13 13 13 14 15 15 17 18 17 17 18
19 18 17 16 16 16 16 16 16 15 15 15 16 17 17 17 17 16 16 16 15 14 15 15 15 15 15 14 13 15 14 11 10 11 11 11 11 12 13 13 12 11 11 12 13 15 16 16 16 16 17 18
19 18 17 17 16 16 16 16 16 16 15 15 15 16 17 17 17 16 16 16 15 14 15 15 15 15 15 13 13 14 14 11 9 10 12 12 10 11 12 13 11 10 11 12 13 13 15 15 14 15 17 18
19 18 18 17 17 17 17 16 16 16 15 14 15 15 16 16 16 16 16 15 15 15 15 16 16 16 15 13 12 13 13 12 11 10 12 12 11 10 11 11 9 9 11 12 13 12 13 14 14 15 16 17
20 19 18 18 17 17 17 17 16 16 15 14 14 15 15 16 15 15 15 15 15 16 16 16 17 16 15 13 12 13 14 14 13 11 10 11 12 10 9 9 9 8 10 12 12 11 12 12 13 15 16 16
20 19 18 18 18 17 16 16 17 16 15 15 14 14 15 15 15 15 15 15 16 17 17 17 17 17 15 13 13 13 15 15 13 12 11 10 10 10 8 7 8 9 11 12 10 9 11 12 12 13 14 15
20 19 19 18 18 17 16 16 16 16 16 15 14 14 15 15 15 16 16 16 16 17 18 17 17 16 15 14 14 14 15 16 14 12 12 11 9 8 8 8 8 9 9 9 8 6 7 9 10 11 13 15
21 20 20 19 18 16 16 16 16 16 16 16 15 14 15 15 16 16 17 17 16 17 18 18 17 16 15 14 15 16 16 16 16 13 11 11 9 6 6 7 6 5 5 5 4 3 2 3 5 8 10 12
23 21 21 20 18 17 16 16 16 16 16 16 15 15 15 15 16 17 18 18 17 18 18 18 17 16 15 14 16 17 17 17 16 15 12 9 8 5 4 4 2 1 2 3 3 1 2 4 5 5 7 7
24 23 22 21 19 18 18 17 17 17 16 16 15 15 15 16 16 17 18 18 19 18 18 18 18 17 15 14 16 17 18 17 16 16 14 10 9 8 7 7 6 3 1 3 4 3 3 6 8 6 5 4
23 22 22 21 20 19 19 18 18 18 17 16 15 15 15 16 16 17 18 19 20 19 19 18 18 19 17 14 14 16 17 17 16 17 15 12 11 11 13 14 12 6 2 3 4 4 4 5 7 7 2 1
23 20 19 20 20 20 19 17 17 18 18 17 16 16 15 16 16 17 18 19 20 20 20 19 18 18 19 16 13 14 16 17 17 17 17 15 12 12 15 17 16 13 7 4 2 1 3 1 3 5 3 4
23 21 20 20 20 20 19 18 18 19 18 17 17 17 16 16 16 17 18 18 19 20 21 21 19 18 19 18 15 14 17 18 19 19 17 16 14 13 14 16 17 17 14 10 4 2 3 1 2 0 2 11
26 26 25 25 23 21 20 19 19 19 18 17 17 17 17 17 16 17 17 18 18 19 20 21 21 20 20 20 18 16 18 19 20 20 19 17 16 15 14 13 14 16 17 17 13 7 2 0 2 1 5 10
30 30 30 30 29 26 24 22 21 21 20 19 18 18 18 18 17 17 18 19 19 19 20 21 21 21 20 21 20 18 19 19 20 20 20 18 16 16 14 12 13 13 14 17 17 16 12 8 5 1 4 4
32 31 31 30 29 28 27 25 21 20 21 20 19 20 20 20 19 20 21 21 21 21 21 21 21 21 21 21 20 19 19 19 19 19 19 18 17 17 15 13 13 11 8 11 14 14 14 12 12 10 7 4
Wind_Direction
107 103 99 100 101 99 98 97 97 95 93 90 86 82 76 73 68 66 64 63 63 62 64 65 63 61 60 59 58 58 58 59 60 61 62 61 60 59 58 57 56 55 54 54 54 56 56 56 57 56 57 59
107 106 106 103 103 101 100 100 101 101 99 92 85 81 74 71 68 66 65 64 66 66 67 67 65 63 62 61 61 61 60 61 61 61 63 62 61 60 58 57 57 56 54 55 55 56 58 58 55 53 54 56
117 115 114 110 110 109 108 108 107 105 100 94 87 79 74 71 70 69 68 68 71 72 73 71 68 66 64 63 63 63 62 62 62 62 62 64 63 60 60 60 58 56 54 54 55 56 56 58 57 50 48 52
123 119 118 118 118 118 118 115 112 108 100 95 88 81 76 72 72 72 73 73 75 76 76 77 76 71 66 65 64 63 63 62 62 61 64 69 71 67 63 61 56 53 52 51 52 53 53 55 61 55 44 44
122 121 124 125 125 124 122 118 116 111 104 97 90 85 79 73 73 77 80 78 77 77 77 77 78 77 71 67 66 64 65 67 68 67 70 75 76 70 61 58 56 52 49 48 50 52 56 61 65 63 50 39
128 129 130 129 128 125 122 121 119 112 105 98 93 89 83 78 75 77 83 80 75 73 74 74 75 80 79 76 76 74 73 75 77 74 72 73 72 65 59 58 56 56 59 57 55 55 58 61 63 63 58 45
131 130 128 127 125 121 121 121 116 109 104 98 92 91 88 86 81 78 80 81 79 75 75 75 78 85 89 88 88 87 83 78 78 78 73 69 67 61 61 65 61 61 65 63 61 59 57 57 58 60 58 53
132 132 131 130 128 125 124 118 113 110 104 97 92 91 90 89 91 90 88 88 89 86 84 84 87 91 93 94 90 87 83 76 72 75 74 67 63 61 63 69 69 65 62 60 61 60 58 56 57 60 59 57
139 141 140 136 134 131 126 119 115 111 105 100 94 90 86 87 91 96 97 95 94 91 89 88 90 91 90 90 85 80 77 74 67 65 68 64 61 61 64 66 64 62 61 59 59 59 59 59 58 59 59 57
142 143 141 136 136 132 125 120 116 111 107 104 100 94 88 92 94 95 98 98 97 95 92 90 88 87 86 83 79 76 72 72 68 61 60 60 59 60 61 62 61 60 61 61 60 60 59 57 56 54 55 54
149 150 147 143 140 134 127 122 117 111 109 109 107 102 97 99 100 100 100 99 98 95 93 89 86 85 85 82 77 76 73 70 70 65 60 59 60 61 60 59 61 61 60 63 62 60 56 52 51 50 50 49
153 153 151 148 144 137 130 123 116 111 113 114 114 111 107 105 104 104 102 100 97 94 92 88 85 84 83 84 80 78 77 73 72 71 66 62 62 63 64 60 58 59 59 62 62 59 54 49 47 46 47 46
152 151 151 148 144 138 133 126 120 118 119 117 117 118 117 115 111 108 104 101 98 95 94 90 88 86 83 85 85 83 80 76 75 76 74 69 65 63 65 64 57 54 57 58 58 57 55 50 46 44 44 44
153 153 151 145 141 137 133 128 126 127 124 120 121 119 119 120 118 114 110 105 102 98 95 95 95 91 87 87 88 86 81 79 78 77 79 76 71 66 65 66 60 54 54 56 56 53 52 50 48 45 44 44
156 154 151 145 141 136 131 128 128 129 126 125 124 120 118 120 119 117 113 109 106 103 99 99 99 96 92 89 89 88 84 83 82 75 72 72 72 69 65 64 61 59 56 53 54 52 50 47 47 46 45 45
158 154 151 147 142 135 130 129 129 129 128 129 126 123 121 119 118 117 113 109 106 106 105 102 100 99 95 92 91 90 85 84 87 82 70 65 69 69 69 67 61 60 58 51 48 51 52 48 44 44 44 44
158 154 151 147 141 135 133 132 131 129 129 129 128 127 125 124 122 119 114 109 105 106 107 105 103 101 97 94 94 93 89 85 89 94 85 70 67 71 72 71 68 63 61 57 49 48 52 50 42 39 42 42
157 152 150 146 140 136 135 133 130 129 128 129 129 129 128 127 127 123 118 113 109 109 110 110 108 103 98 94 96 97 93 90 88 95 96 85 72 73 74 72 70 67 62 61 56 52 51 51 42 36 41 41
153 151 149 145 141 138 136 132 130 129 128 130 132 131 129 129 130 127 124 120 116 115 114 114 111 104 98 95 98 98 96 93 91 91 94 93 84 77 79 76 70 70 68 62 58 55 51 49 42 37 40 39
152 153 152 148 144 140 138 135 132 131 131 133 134 133 131 131 132 130 127 126 124 121 118 115 111 104 98 97 99 101 101 97 93 90 87 93 95 84 81 84 81 79 80 71 60 55 53 47 38 36 36 35
156 156 152 148 145 141 139 137 135 134 135 137 137 136 133 134 134 132 129 127 127 125 121 117 110 103 99 100 102 103 104 98 92 92 87 86 95 98 94 91 94 92 88 85 75 59 54 50 40 33 32 30
157 153 149 146 144 142 140 137 137 138 140 139 140 137 135 137 137 135 131 127 127 126 123 119 112 106 105 107 108 107 105 99 94 93 92 83 77 94 103 95 96 98 93 90 87 69 51 49 43 32 29 28
156 151 147 144 142 141 139 138 140 143 144 143 142 139 138 141 140 138 134 129 127 127 124 120 113 109 111 113 113 112 109 105 99 90 89 90 80 72 86 90 91 94 90 79 76 74 36 11 21 25 24 22
158 151 147 145 143 143 141 141 143 145 147 146 145 143 144 146 143 140 136 132 130 128 125 121 114 111 111 114 115 113 110 108 104 94 82 84 92 81 69 69 57 53 44 20 2 342 270 278 300 347 7 6
161 156 152 150 150 148 146 147 147 147 150 150 148 148 149 149 146 143 140 136 132 128 126 124 119 115 110 113 115 113 111 109 108 104 91 78 78 80 70 48 29 7 359 16 3 338 285 256 257 291 342 351
163 161 158 157 158 154 151 152 153 153 154 152 148 149 151 151 149 147 144 141 138 133 131 128 125 121 114 112 114 116 116 115 114 112 109 96 75 70 67 54 39 32 67 49 15 354 319 253 242 270 299 343
163 162 163 163 159 154 149 152 159 159 157 154 150 150 152 153 152 151 149 147 144 139 136 134 132 128 123 121 123 125 124 122 119 116 115 110 93 79 71 63 52 46 59 51 14 10 336 261 235 260 243 311
163 161 163 161 156 154 153 156 162 159 156 156 154 153 153 153 154 154 152 151 150 146 143 142 139 136 133 131 133 135 131 126 123 118 116 113 106 95 78 69 57 49 55 55 65 156 262 273 46 117 289 321
166 163 160 156 153 155 152 153 158 156 156 159 158 156 156 154 155 157 156 154 153 152 149 147 145 142 140 137 138 139 134 129 125 122 120 116 112 102 88 81 68 56 57 62 68 76 68 89 54 203 308 325
171 168 166 163 161 159 155 153 159 161 162 163 163 163 160 157 158 160 160 158 156 154 152 149 147 145 142 140 138 136 132 129 127 125 123 120 117 111 103 100 89 71 65 68 73 76 81 90 92 110 327 336
175 173 172 171 168 165 162 158 162 168 167 167 170 168 165 164 165 166 165 163 159 156 153 150 148 145 142 139 135 133 131 128 126 124 122 121 119 117 115 112 104 94 86 78 76 77 80 79 74 66 44 61
Height
844 845 846 848 849 849 850 850 850 850 850 850 850 850 849 849 849 849 848 848 848 848 848 848 848 848 848 848 848 847 847 846 846 846 845 845 845 844 844 843 842 842 841 841 840 840 840 840 839 838 837 836
845 845 846 847 848 849 849 849 850 849 850 850 850 850 850 849 849 849 849 848 848 848 848 848 849 849 849 849 848 848 848 847 847 846 846 846 846 845 845 844 843 843 843 842 842 841 841 841 841 839 838 837
844 845 846 847 848 849 849 849 850 850 850 850 850 850 850 850 849 849 849 849 848 848 848 848 849 849 850 849 849 849 848 848 848 847 847 847 846 846 846 845 845 845 844 844 844 843 843 842 842 841 839 839
844 845 846 847 848 849 849 850 850 850 850 850 850 850 850 850 850 849 849 849 849 849 849 848 849 849 850 850 850 849 849 849 848 848 848 847 847 847 847 847 847 846 846 846 845 845 844 843 842 842 841 840
844 846 847 848 849 849 850 850 850 850 850 851 850 851 851 850 850 849 849 849 849 849 849 849 849 849 850 850 850 850 849 849 849 849 849 848 848 848 848 848 847 847 848 847 847 846 845 844 843 843 843 842
845 847 848 848 849 849 850 850 850 850 850 851 850 851 850 850 850 850 850 850 850 851 850 850 850 850 850 850 850 850 850 850 850 850 850 850 849 849 849 849 849 848 848 848 848 847 846 845 844 844 844 843
846 848 848 849 849 849 850 850 850 850 851 851 850 851 850 851 851 851 851 851 851 852 851 851 851 851 850 850 850 850 851 851 851 851 851 851 850 850 850 850 850 849 849 849 848 848 847 846 846 845 845 844
846 848 848 849 849 849 850 850 850 850 850 850 851 851 851 851 851 851 851 851 852 852 852 851 851 851 851 851 851 851 851 852 852 852 851 852 852 851 851 850 850 850 850 849 848 848 847 847 847 846 846 846
846 847 848 848 849 849 850 850 850 850 850 850 851 851 851 851 851 851 851 851 852 852 852 852 852 852 852 852 852 852 852 853 853 853 853 853 853 852 852 851 851 851 850 850 849 849 849 848 848 847 847 847
846 847 847 848 849 849 849 850 850 850 850 850 850 851 851 851 851 851 851 852 852 852 852 852 852 852 852 852 852 853 853 854 854 855 854 854 854 854 853 852 852 852 851 851 850 850 850 850 849 849 849 848
845 846 847 848 848 849 849 850 850 850 850 850 850 851 851 852 851 852 852 852 852 852 852 852 853 853 853 853 853 854 854 855 855 855 855 855 855 855 854 854 853 852 852 852 851 851 851 851 851 851 850 850
845 846 847 847 848 848 849 849 849 849 850 850 850 850 851 851 852 852 852 852 853 853 853 853 853 854 854 853 854 854 855 855 855 856 856 856 856 855 855 854 854 854 853 853 852 852 853 853 853 852 852 851
844 846 846 847 848 848 849 849 849 850 850 850 850 850 851 851 852 852 852 853 853 853 853 853 854 854 854 854 854 855 855 855 856 856 856 856 856 856 856 855 856 855 854 854 854 854 854 854 854 854 853 852
844 845 846 847 847 848 848 849 849 849 850 850 850 851 851 851 851 852 853 853 853 854 854 854 854 854 854 854 855 855 855 855 856 856 856 857 857 857 857 856 857 856 856 855 855 855 855 855 855 854 854 853
844 845 846 846 847 848 848 849 849 849 850 850 850 851 851 852 852 852 853 853 854 854 854 854 854 854 855 855 855 855 856 856 857 857 858 858 858 858 857 857 858 857 857 856 857 857 856 856 855 855 854 854
844 845 845 846 847 848 848 849 849 850 850 850 851 851 851 852 852 853 853 854 854 855 855 855 855 855 855 855 856 856 857 857 858 858 859 859 859 859 858 858 858 858 858 858 858 857 857 856 856 856 855 855
843 844 845 846 847 848 849 849 849 850 850 851 851 851 851 852 852 853 854 854 855 855 855 855 856 856 856 856 857 857 857 858 859 859 859 860 860 859 859 859 859 859 859 859 859 858 857 857 857 857 856 856
843 844 845 846 846 848 849 849 849 850 850 851 851 852 852 852 853 853 854 855 855 856 856 856 856 856 857 857 858 858 858 859 859 859 859 860 860 860 860 859 860 860 860 860 859 858 858 858 858 858 857 857
843 844 844 845 846 848 849 849 849 850 851 851 852 852 852 852 853 854 854 855 855 856 856 856 856 857 858 858 859 858 859 859 860 860 860 860 860 860 860 860 861 861 860 860 859 859 859 859 859 858 858 857
843 843 844 845 846 847 848 849 849 850 851 851 852 852 852 853 853 854 855 855 856 856 856 857 857 858 858 859 859 859 859 859 860 860 861 860 860 861 861 861 861 861 860 859 860 860 860 859 859 859 858 858
842 843 843 844 846 847 848 849 849 850 851 851 852 852 853 853 854 854 855 856 856 856 856 857 858 858 859 860 859 859 859 859 860 860 861 861 861 861 862 862 861 861 860 859 860 860 860 859 859 859 859 858
841 842 843 844 846 847 848 849 849 849 850 851 852 852 853 854 854 854 855 856 856 856 856 857 858 858 859 860 859 859 859 859 860 861 861 862 862 862 862 862 861 861 860 859 859 860 860 860 860 860 859 859
840 841 842 844 846 847 848 848 849 849 850 851 852 853 853 854 854 855 855 856 856 856 857 857 858 859 859 860 859 859 859 860 860 861 862 862 863 863 863 862 862 861 860 860 859 859 860 860 860 860 859 859
838 840 842 843 845 847 847 848 848 849 850 851 852 853 853 854 854 855 856 856 856 856 857 858 858 859 859 860 860 859 859 860 860 861 863 863 863 863 863 863 862 861 861 860 860 859 859 860 860 860 859 859
837 838 840 842 844 845 846 846 847 848 849 851 852 853 854 854 855 855 856 856 856 857 857 858 859 859 860 860 860 860 860 860 861 861 862 864 864 864 863 863 862 861 861 860 860 859 859 860 860 860 859 859
835 837 838 840 842 843 844 845 846 847 849 851 852 853 854 854 855 855 856 856 856 856 857 858 859 859 859 860 861 860 860 861 861 861 862 863 864 864 863 863 862 861 861 861 861 860 860 859 859 860 859 859
834 836 838 839 841 842 843 844 845 847 848 850 851 853 854 854 855 855 856 856 856 856 856 857 859 859 859 860 861 861 861 861 861 861 862 863 864 865 864 863 863 862 862 861 861 862 861 860 860 860 859 859
832 834 836 838 840 840 841 842 844 846 848 850 851 852 853 854 855 855 856 856 856 856 856 857 858 859 859 859 860 861 861 861 861 861 862 863 864 865 865 865 865 865 864 862 861 862 861 860 860 861 861 859
829 831 833 835 838 839 840 842 844 846 848 849 851 852 852 854 854 855 855 856 856 856 856 856 857 859 858 859 860 861 861 860 860 861 862 863 864 865 866 866 867 867 866 864 863 863 862 860 861 864 864 861
825 827 829 831 832 834 837 840 842 844 846 848 849 850 851 853 854 854 855 855 856 856 856 857 857 858 859 859 860 861 861 861 860 861 861 863 864 865 866 867 867 868 867 867 865 865 865 864 864 867 866 863
823 825 827 828 829 831 833 836 840 842 844 846 847 848 850 851 852 853 854 854 855 856 856 857 858 859 859 859 860 861 862 861 861 861 861 862 864 865 866 867 867 868 868 868 868 867 868 867 868 868 866 866